Weather History for Springfield, VT

Change the Weather History Date:

Wednesday, February 5, 2014

  Actual Average Record
Temperature  
Mean Temperature 22 °F 21 °F  
Max Temperature 26 °F 31 °F 50 °F (2005)
Min Temperature 18 °F 11 °F -2 °F (2009)
Degree Days  
Heating Degree Days 43 44  
Month to date heating degree days 193 223  
Since 1 July heating degree days 4618 4495  
Moisture  
Dew Point 18 °F    
Average Humidity 73    
Maximum Humidity 96    
Minimum Humidity 50    
Precipitation  
Precipitation 0.38 in 0.10 in 0.94 in (2008)
Month to date precipitation 0.42 0.45  
Year to date precipitation 2.71 3.37  
Sea Level Pressure  
Sea Level Pressure 29.96 in    
Wind  
Wind Speed 3 mph (North)    
Max Wind Speed 10 mph    
Max Gust Speed 13 mph    
Visibility 2 miles    
Events Fog , Snow    
T = Trace of Precipitation, MM = Missing Value Source: NWS Daily Summary

Daily Weather History Graph

Daily Weather History Graph

Search for Another Location

Airport:

Trip Planner

Search our weather history database for the weather conditions in past years. The results will help you decide how hot, cold, wet, or windy it might be!

Date:

Astronomy

Feb. 05, 2014 Rise Set
Actual Time 7:01 AM EST 5:07 PM EST
Civil Twilight 6:31 AM EST 5:37 PM EST
Nautical Twilight 5:57 AM EST 6:11 PM EST
Astronomical Twilight 5:24 AM EST 6:44 PM EST
Moon 10:02 AM EST (2/5) No Moon Set
Length of Visible Light 11h 06m
Length of Day
10h 06m
Waxing Crescent, 39% of the Moon is Illuminated
Feb 5
Waxing Crescent
Feb 6
First Quarter
Feb 14
Full
Feb 22
Last Quarter
Mar 1
New

Hourly Weather History & Observations

Time (EST) Temp. Windchill Dew Point Humidity Pressure Visibility Wind Dir Wind Speed Gust Speed Precip Events Conditions
12:54 AM 26.1 °F 21.9 °F 10.9 °F 53% 30.25 in 10.0 mi Variable 3.5 mph - N/A   Overcast
1:54 AM 26.1 °F - 10.9 °F 53% 30.28 in 10.0 mi Calm Calm - N/A   Overcast
2:54 AM 25.0 °F - 10.9 °F 55% 30.27 in 10.0 mi Calm Calm - N/A   Overcast
3:54 AM 25.0 °F 20.7 °F 12.0 °F 58% 30.25 in 10.0 mi NNE 3.5 mph - N/A   Overcast
4:40 AM 24.1 °F - 12.9 °F 62% 30.19 in 2.5 mi Calm Calm - 0.00 in Snow Light Snow
4:54 AM 21.9 °F - 17.1 °F 82% 30.22 in 0.8 mi Calm Calm - 0.00 in Snow Light Snow
5:10 AM 21.9 °F - 19.0 °F 89% 30.17 in 0.5 mi Calm Calm - 0.02 in Fog , Snow Snow
5:29 AM 21.9 °F - 19.0 °F 89% 30.17 in 0.2 mi Calm Calm - 0.05 in Fog , Snow Heavy Snow
5:39 AM 21.9 °F - 19.0 °F 89% 30.17 in 0.5 mi Calm Calm - 0.06 in Fog , Snow Snow
5:54 AM 21.9 °F - 19.0 °F 89% 30.20 in 0.5 mi Calm Calm - 0.08 in Fog , Snow Snow
6:04 AM 21.9 °F - 19.0 °F 89% 30.16 in 0.5 mi Calm Calm - 0.01 in Fog , Snow Snow
6:47 AM 21.0 °F - 19.0 °F 92% 30.16 in 0.5 mi Calm Calm - 0.06 in Fog , Snow Snow
6:54 AM 21.0 °F - 19.9 °F 96% 30.19 in 0.5 mi Calm Calm - 0.07 in Fog , Snow Snow
7:39 AM 21.0 °F - 19.0 °F 92% 30.13 in 0.2 mi Calm Calm - 0.06 in Fog , Snow Snow
7:54 AM 21.9 °F 17.2 °F 19.0 °F 89% 30.15 in 0.2 mi North 3.5 mph - 0.08 in Fog , Snow Snow
8:16 AM 21.9 °F - 19.0 °F 89% 30.11 in 0.2 mi Calm Calm - 0.03 in Fog , Snow Snow
8:54 AM 21.9 °F - 19.0 °F 89% 30.11 in 0.2 mi Calm Calm - 0.07 in Fog , Snow Snow
9:28 AM 21.9 °F - 19.9 °F 92% 30.03 in 0.2 mi Calm Calm - 0.02 in Fog , Snow Light Snow
9:41 AM 21.9 °F - 19.0 °F 89% 30.02 in 0.5 mi Calm Calm - 0.03 in Fog , Snow Light Snow
9:54 AM 21.9 °F - 19.9 °F 92% 30.04 in 0.8 mi Calm Calm - 0.03 in Snow Light Snow
10:54 AM 23.0 °F 17.0 °F 19.9 °F 88% 30.01 in 0.5 mi North 4.6 mph - 0.02 in Fog , Snow Light Snow
11:20 AM 24.1 °F 19.7 °F 19.9 °F 84% 29.92 in 0.2 mi Variable 3.5 mph - 0.01 in Fog , Snow Light Snow
11:28 AM 24.1 °F - 21.0 °F 88% 29.92 in 0.5 mi Calm Calm - 0.01 in Fog , Snow Light Snow
11:54 AM 23.0 °F 15.8 °F 19.9 °F 88% 29.90 in 0.5 mi ENE 5.8 mph - 0.02 in Fog , Snow Light Snow
12:54 PM 23.0 °F - 19.9 °F 88% 29.84 in 0.5 mi Calm Calm - 0.01 in Fog , Snow Light Snow
1:23 PM 23.0 °F - 21.0 °F 92% 29.75 in 0.2 mi Calm Calm - 0.00 in Fog , Snow Snow
1:50 PM 23.0 °F - 21.2 °F 93% 29.72 in 0.2 mi Calm Calm - 0.00 in Fog , Snow Snow
1:54 PM 23.0 °F 18.4 °F 21.0 °F 92% 29.75 in 0.2 mi NE 3.5 mph - 0.00 in Fog , Snow Snow
2:54 PM 24.1 °F 18.2 °F 21.0 °F 88% 29.80 in 0.2 mi NNE 4.6 mph - 0.00 in Fog , Snow Snow
3:16 PM 24.1 °F 18.2 °F 21.0 °F 88% 29.76 in 0.2 mi North 4.6 mph - 0.00 in Fog , Snow Snow
3:54 PM 24.1 °F 18.2 °F 21.0 °F 88% 29.78 in 0.2 mi North 4.6 mph - 0.00 in Fog , Snow Light Snow
4:13 PM 24.1 °F - 21.0 °F 88% 29.76 in 0.5 mi Calm Calm - 0.00 in Fog , Snow Light Snow
4:47 PM 24.1 °F - 19.9 °F 84% 29.74 in 1.0 mi Calm Calm - 0.00 in Snow Light Snow
4:54 PM 24.1 °F - 19.9 °F 84% 29.77 in 1.0 mi Calm Calm - 0.00 in Snow Light Snow
5:19 PM 24.1 °F 19.7 °F 19.0 °F 81% 29.74 in 2.5 mi Variable 3.5 mph - 0.00 in Snow Light Snow
5:54 PM 24.1 °F 19.7 °F 19.0 °F 81% 29.77 in 2.5 mi NNE 3.5 mph - 0.00 in Snow Light Snow
6:30 PM 24.1 °F 18.2 °F 19.0 °F 81% 29.74 in 1.8 mi Variable 4.6 mph - 0.00 in Snow Light Snow
6:49 PM 24.8 °F 19.1 °F 19.4 °F 80% 29.75 in 2.0 mi Variable 4.6 mph - 0.00 in Snow Light Snow
6:54 PM 24.1 °F 15.2 °F 19.0 °F 81% 29.78 in 1.8 mi North 8.1 mph - 0.00 in Snow Light Snow
7:06 PM 24.1 °F 18.2 °F 19.0 °F 81% 29.76 in 2.5 mi North 4.6 mph - 0.00 in Snow Light Snow
7:25 PM 24.1 °F - 19.0 °F 81% 29.77 in 1.8 mi North - - 0.00 in Snow Light Snow
7:43 PM 23.0 °F - 19.0 °F 85% 29.77 in 1.0 mi Calm Calm - 0.00 in Snow Light Snow
7:54 PM 23.0 °F 17.0 °F 19.0 °F 85% 29.81 in 1.0 mi North 4.6 mph - 0.00 in Snow Light Snow
8:54 PM 23.0 °F 15.8 °F 19.0 °F 85% 29.85 in 1.2 mi NNE 5.8 mph - 0.00 in Snow Light Snow
9:39 PM 23.0 °F 17.0 °F 18.0 °F 81% 29.84 in 2.0 mi NNE 4.6 mph - 0.00 in Snow Light Snow
9:54 PM 23.0 °F - 18.0 °F 81% 29.88 in 3.0 mi Calm Calm - 0.00 in Snow Light Snow
10:28 PM 21.0 °F 11.4 °F 15.1 °F 78% 29.89 in 7.0 mi WNW 8.1 mph - 0.00 in   Overcast
10:54 PM 19.0 °F 11.1 °F 12.9 °F 77% 29.95 in 8.0 mi NW 5.8 mph - 0.00 in   Overcast
11:44 PM 18.0 °F 9.8 °F 10.9 °F 74% 29.95 in 9.0 mi NW 5.8 mph - N/A   Overcast
11:54 PM 18.0 °F 6.9 °F 10.9 °F 74% 29.99 in 8.0 mi WNW 9.2 mph - N/A   Overcast